Content
SEND FEEDBACK

Daily
Averages
Monthly
Summary
United States of America

ALVA, OKLAHOMA


Home > North America > United States > Oklahoma
Elevation: 1470 feet     Latitude: 36 46N     Longitude: 098 40W

WEATHER
 
SELECT A DAY
Number of Records: 303,650;   Date Range: 2/12/01 - 10/23/14
 
SHARE

PRINT THIS DATA

[ ← Previous Day ]
WEATHER ALMANAC - JANUARY 3, 2013
[ Next Day → ]
[ °C ]   °F
Weather ElementAverageHighLow
Temperature27 °F35.6 °F (12:55 pm)17.6 °F (11:35 pm)
Dewpoint19.5 °F23 °F (10:55 am)15.8 °F (5:15 am)
Humidity74.3 %93 % (12:35 am)52 % (3:15 pm)
Barometer30.41 in30.48 in (10:35 am)30.31 in (12:35 am)
Wind Speed7.8 mph12.7 mph (3:55 am)
Wind Gust17.3 mph (7:35 am)
Weather ElementAverage
Visibility10 mi
Wind DirectionWNW (287 °)

Weather ElementTotal
Precipitation---
Heating Degree Days38.4 (Base 65)
Averaged from 69 records on January 3, 2013
WEATHER CONDITIONS BREAKOUT
WIND DIRECTION BREAKOUT
WEATHER BY HOUR - JANUARY 3, 2013
[ °C ]   °F
Local TimeTemperatureDewpointHumidityBarometerVisibilityWind DirectionWind SpeedGust SpeedPrecipitationEventsConditions
12:35 AM23.0 °F21.2 °F93 %30.31 in10.0 miWNW (290°)9.2 mphClear
12:55 AM24.8 °F21.2 °F86 %30.31 in10.0 miNW (310°)9.2 mphClear
1:15 AM23.0 °F19.4 °F86 %30.32 in10.0 miWNW (290°)6.9 mphClear
1:35 AM21.2 °F19.4 °F93 %30.33 in10.0 miWest (280°)4.6 mphClear
1:55 AM21.2 °F19.4 °F93 %30.33 in10.0 miWest (260°)8.1 mphClear
2:15 AM21.2 °F17.6 °F86 %30.34 in10.0 miWest (280°)5.8 mphClear
2:35 AM21.2 °F17.6 °F86 %30.35 in10.0 miWest (270°)6.9 mphClear
2:55 AM21.2 °F19.4 °F93 %30.36 in10.0 miWest (280°)6.9 mphClear
3:15 AM21.2 °F17.6 °F86 %30.36 in10.0 miWNW (290°)10.4 mphClear
3:35 AM23.0 °F19.4 °F86 %30.36 in10.0 miWNW (300°)9.2 mphClear
3:55 AM23.0 °F17.6 °F80 %30.37 in10.0 miNW (310°)12.7 mphClear
4:15 AM24.8 °F17.6 °F74 %30.38 in10.0 miWNW (300°)9.2 mphClear
4:35 AM23.0 °F17.6 °F80 %30.38 in10.0 miWNW (300°)9.2 mphClear
4:55 AM23.0 °F17.6 °F80 %30.38 in10.0 miNW (320°)10.4 mphClear
5:15 AM23.0 °F15.8 °F74 %30.38 in10.0 miNNW (330°)12.7 mphClear
5:35 AM23.0 °F15.8 °F74 %30.38 in10.0 miNW (320°)12.7 mphClear
5:55 AM23.0 °F15.8 °F74 %30.39 in10.0 miNW (320°)12.7 mphClear
6:15 AM23.0 °F15.8 °F74 %30.40 in10.0 miNW (320°)11.5 mphClear
6:35 AM23.0 °F15.8 °F74 %30.41 in10.0 miNNW (330°)11.5 mphClear
7:15 AM23.0 °F15.8 °F74 %30.42 in10.0 miNNW (330°)11.5 mphClear
7:35 AM23.0 °F15.8 °F74 %30.42 in10.0 miNNW (340°)12.7 mph17.3 mphClear
7:55 AM23.0 °F15.8 °F74 %30.43 in10.0 miNNW (340°)11.5 mphClear
8:15 AM23.0 °F15.8 °F74 %30.43 in10.0 miNW (320°)10.4 mphClear
8:35 AM23.0 °F15.8 °F74 %30.44 in10.0 miNW (320°)8.1 mphClear
8:55 AM24.8 °F17.6 °F74 %30.45 in10.0 miNNW (330°)8.1 mphClear
9:15 AM24.8 °F17.6 °F74 %30.46 in10.0 miNW (320°)6.9 mphClear
9:35 AM26.6 °F19.4 °F74 %30.46 in10.0 miNNW (330°)11.5 mphClear
9:55 AM28.4 °F19.4 °F69 %30.46 in10.0 miNNW (340°)12.7 mphClear
10:15 AM28.4 °F21.2 °F74 %30.47 in10.0 miNNW (340°)12.7 mphClear
10:35 AM30.2 °F21.2 °F69 %30.48 in10.0 miNorth (350°)11.5 mph17.3 mphClear
10:55 AM30.2 °F23.0 °F75 %30.48 in10.0 miNorth (350°)12.7 mphClear
11:15 AM32.0 °F23.0 °F69 %30.48 in10.0 miNorth (350°)10.4 mphClear
11:35 AM32.0 °F23.0 °F69 %30.48 in10.0 miNNW (340°)10.4 mphClear
11:55 AM32.0 °F23.0 °F69 %30.47 in10.0 miNorth (360°)10.4 mphClear
12:15 PM32.0 °F23.0 °F69 %30.45 in10.0 miNNW (330°)9.2 mphClear
12:35 PM33.8 °F23.0 °F65 %30.45 in10.0 miNorth (350°)10.4 mphPartly Cloudy
12:55 PM35.6 °F23.0 °F60 %30.44 in10.0 miNorth (350°)9.2 mphScattered Clouds
1:15 PM35.6 °F23.0 °F60 %30.43 in10.0 miNNW (330°)10.4 mphPartly Cloudy
1:35 PM35.6 °F21.2 °F56 %30.42 in10.0 miNNW (330°)9.2 mphPartly Cloudy
1:55 PM35.6 °F23.0 °F60 %30.42 in10.0 miNNW (330°)10.4 mphPartly Cloudy
2:15 PM35.6 °F21.2 °F56 %30.42 in10.0 miNNW (330°)11.5 mph16.1 mphPartly Cloudy
2:35 PM35.6 °F21.2 °F56 %30.41 in10.0 miWNW (300°)11.5 mph16.1 mphClear
2:55 PM35.6 °F21.2 °F56 %30.42 in10.0 miWNW (290°)6.9 mphPartly Cloudy
3:15 PM35.6 °F19.4 °F52 %30.42 in10.0 miNNW (330°)5.8 mphScattered Clouds
3:35 PM35.6 °F21.2 °F56 %30.42 in10.0 miNW (320°)9.2 mphScattered Clouds
3:55 PM35.6 °F19.4 °F52 %30.42 in10.0 miWNW (290°)5.8 mphPartly Cloudy
4:15 PM35.6 °F19.4 °F52 %30.42 in10.0 miNW (310°)8.1 mphClear
4:55 PM33.8 °F19.4 °F56 %30.42 in10.0 miNNW (330°)5.8 mphClear
5:15 PM32.0 °F19.4 °F60 %30.42 in10.0 miNW (310°)4.6 mphClear
5:35 PM32.0 °F21.2 °F64 %30.42 in10.0 miNW (310°)4.6 mphClear
5:55 PM32.0 °F21.2 °F64 %30.42 in10.0 miNW (310°)3.5 mphClear
6:15 PM32.0 °F23.0 °F69 %30.42 in10.0 miNNW (330°)3.5 mphPartly Cloudy
6:35 PM30.2 °F21.2 °F69 %30.43 in10.0 miNW (320°)4.6 mphPartly Cloudy
6:55 PM32.0 °F19.4 °F60 %30.43 in10.0 miNW (320°)4.6 mphPartly Cloudy
7:15 PM30.2 °F19.4 °F64 %30.43 in10.0 miNW (320°)4.6 mphPartly Cloudy
7:35 PM26.6 °F21.2 °F80 %30.43 in10.0 miCalmPartly Cloudy
7:55 PM28.4 °F19.4 °F69 %30.43 in10.0 miNW (320°)3.5 mphPartly Cloudy
8:15 PM28.4 °F21.2 °F74 %30.43 in10.0 miWNW (290°)3.5 mphClear
8:35 PM23.0 °F19.4 °F86 %30.42 in10.0 miCalmClear
8:55 PM21.2 °F19.4 °F93 %30.42 in10.0 miWSW (250°)4.6 mphPartly Cloudy
9:15 PM24.8 °F23.0 °F93 %30.42 in10.0 miCalmClear
9:35 PM23.0 °F19.4 °F86 %30.42 in10.0 miCalmClear
9:55 PM24.8 °F21.2 °F86 %30.42 in10.0 miCalmClear
10:15 PM19.4 °F17.6 °F93 %30.42 in10.0 miWSW (240°)4.6 mphClear
10:35 PM23.0 °F19.4 °F86 %30.42 in10.0 miWSW (250°)3.5 mphClear
10:55 PM21.2 °F17.6 °F86 %30.42 in10.0 miWSW (240°)4.6 mphClear
11:15 PM19.4 °F17.6 °F93 %30.42 in10.0 miWSW (240°)4.6 mphClear
11:35 PM17.6 °F15.8 °F93 %30.42 in10.0 miSW (230°)6.9 mphClear
11:55 PM19.4 °F17.6 °F93 %30.42 in10.0 miWSW (240°)6.9 mphClear
Hourly data recorded from KAVK, located miles away from Alva, Oklahoma







STORIES FROM OUR PARTNERS